QPF
0.02 0.01 0.01 0.01 0.00 0.00 0.00 0.00 0.00 0.00 0.00 0.00 0.00 0.00 0.00 0.00 0.00 0.00 0.00 0.00 0.00 0.00 0.00 0.00 0.00 0.00 0.00 0.00 0.00 0.00 0.00 0.00 0.00 0.00 0.00 0.00 0.00 0.00 0.00 0.00 0.00 0.00 0.00 0.00 0.00
0.01 0.01 0.01 0.02 0.02 0.01 0.01 0.00 0.00 0.00 0.00 0.00 0.00 0.00 0.00 0.00 0.00 0.00 0.00 0.00 0.00 0.00 0.00 0.00 0.00 0.00 0.00 0.00 0.00 0.00 0.00 0.00 0.00 0.00 0.00 0.00 0.00 0.00 0.00 0.00 0.00 0.00 0.00 0.00 0.00
0.00 0.00 0.00 0.01 0.01 0.02 0.02 0.01 0.00 0.00 0.00 0.00 0.00 0.00 0.00 0.00 0.00 0.00 0.00 0.00 0.00 0.00 0.00 0.00 0.00 0.00 0.00 0.00 0.00 0.00 0.00 0.00 0.00 0.00 0.00 0.00 0.00 0.00 0.00 0.00 0.00 0.00 0.00 0.00 0.00
0.00 0.00 0.00 0.00 0.00 0.01 0.02 0.02 0.02 0.01 0.00 0.00 0.00 0.00 0.00 0.00 0.00 0.00 0.00 0.00 0.00 0.00 0.00 0.00 0.00 0.00 0.00 0.00 0.00 0.00 0.00 0.00 0.00 0.00 0.00 0.00 0.00 0.00 0.00 0.00 0.00 0.00 0.00 0.00 0.00
0.00 0.00 0.00 0.00 0.00 0.00 0.00 0.01 0.02 0.02 0.02 0.00 0.00 0.00 0.00 0.00 0.00 0.00 0.00 0.00 0.00 0.00 0.00 0.00 0.00 0.00 0.00 0.00 0.00 0.00 0.00 0.00 0.00 0.00 0.00 0.00 0.00 0.00 0.00 0.00 0.00 0.00 0.00 0.00 0.00
0.00 0.00 0.00 0.00 0.00 0.00 0.00 0.00 0.01 0.02 0.02 0.02 0.00 0.00 0.00 0.00 0.00 0.00 0.00 0.00 0.00 0.00 0.00 0.00 0.00 0.00 0.00 0.00 0.00 0.00 0.00 0.00 0.00 0.00 0.00 0.00 0.00 0.00 0.00 0.00 0.00 0.00 0.00 0.00 0.00
0.00 0.00 0.00 0.00 0.00 0.00 0.00 0.00 0.00 0.01 0.02 0.02 0.02 0.00 0.01 0.00 0.00 0.00 0.00 0.00 0.00 0.00 0.00 0.00 0.00 0.00 0.00 0.00 0.00 0.00 0.00 0.00 0.00 0.00 0.00 0.00 0.00 0.00 0.00 0.00 0.00 0.00 0.00 0.00 0.00
0.00 0.00 0.00 0.00 0.00 0.00 0.00 0.00 0.00 0.00 0.01 0.02 0.02 0.01 0.01 0.00 0.00 0.00 0.00 0.00 0.00 0.00 0.00 0.00 0.00 0.00 0.00 0.00 0.00 0.00 0.00 0.00 0.00 0.00 0.00 0.00 0.00 0.00 0.00 0.00 0.00 0.00 0.00 0.00 0.00
0.00 0.00 0.00 0.00 0.00 0.00 0.00 0.00 0.00 0.00 0.00 0.02 0.02 0.01 0.00 0.00 0.00 0.00 0.00 0.00 0.00 0.00 0.00 0.00 0.00 0.00 0.00 0.00 0.00 0.00 0.00 0.00 0.00 0.00 0.00 0.00 0.00 0.00 0.00 0.00 0.00 0.00 0.00 0.00 0.00
0.00 0.00 0.00 0.00 0.00 0.00 0.00 0.00 0.00 0.00 0.00 0.01 0.02 0.01 0.00 0.00 0.00 0.00 0.00 0.00 0.00 0.00 0.00 0.00 0.00 0.00 0.00 0.00 0.00 0.00 0.00 0.00 0.00 0.00 0.00 0.00 0.00 0.00 0.00 0.00 0.00 0.00 0.00 0.00 0.00
0.01 0.00 0.00 0.00 0.00 0.00 0.00 0.00 0.00 0.00 0.01 0.00 0.01 0.01 0.00 0.00 0.00 0.00 0.00 0.00 0.00 0.00 0.00 0.00 0.00 0.00 0.00 0.00 0.00 0.00 0.00 0.00 0.00 0.00 0.00 0.00 0.00 0.00 0.00 0.00 0.00 0.00 0.00 0.00 0.00
0.01 0.00 0.00 0.00 0.00 0.00 0.00 0.00 0.01 0.04 0.03 0.00 0.00 0.00 0.00 0.00 0.00 0.00 0.00 0.00 0.00 0.00 0.00 0.00 0.00 0.00 0.00 0.00 0.00 0.00 0.00 0.00 0.00 0.00 0.00 0.00 0.00 0.00 0.00 0.00 0.00 0.00 0.00 0.00 0.00
0.00 0.00 0.00 0.01 0.01 0.00 0.00 0.00 0.00 0.02 0.06 0.01 0.00 0.00 0.00 0.00 0.00 0.00 0.00 0.00 0.00 0.00 0.00 0.00 0.00 0.00 0.00 0.00 0.00 0.00 0.00 0.00 0.00 0.00 0.00 0.00 0.00 0.00 0.00 0.00 0.00 0.00 0.00 0.00 0.00
0.00 0.00 0.01 0.03 0.01 0.00 0.00 0.00 0.00 0.00 0.05 0.00 0.00 0.00 0.00 0.00 0.00 0.00 0.00 0.00 0.00 0.00 0.00 0.00 0.00 0.00 0.00 0.00 0.00 0.00 0.00 0.00 0.00 0.00 0.00 0.00 0.00 0.00 0.00 0.00 0.00 0.00 0.00 0.00 0.00
0.01 0.01 0.02 0.07 0.02 0.01 0.00 0.00 0.00 0.00 0.04 0.00 0.01 0.01 0.02 0.00 0.00 0.00 0.00 0.00 0.00 0.00 0.00 0.00 0.00 0.00 0.00 0.00 0.00 0.00 0.00 0.00 0.00 0.00 0.00 0.00 0.00 0.00 0.00 0.00 0.00 0.00 0.00 0.00 0.00
0.00 0.01 0.04 0.03 0.01 0.00 0.00 0.00 0.00 0.00 0.01 0.01 0.03 0.07 0.10 0.05 0.02 0.01 0.00 0.01 0.01 0.00 0.00 0.00 0.00 0.00 0.00 0.00 0.00 0.00 0.00 0.00 0.00 0.00 0.00 0.00 0.00 0.00 0.00 0.00 0.00 0.00 0.00 0.00 0.00
0.01 0.02 0.04 0.04 0.00 0.00 0.00 0.00 0.00 0.00 0.00 0.01 0.03 0.07 0.10 0.05 0.05 0.02 0.03 0.02 0.02 0.01 0.01 0.00 0.00 0.00 0.00 0.00 0.00 0.00 0.00 0.00 0.01 0.00 0.00 0.00 0.00 0.00 0.00 0.00 0.00 0.00 0.00 0.00 0.00
0.01 0.01 0.01 0.01 0.02 0.02 0.09 0.08 0.04 0.00 0.00 0.00 0.01 0.03 0.06 0.07 0.08 0.03 0.07 0.05 0.01 0.01 0.01 0.01 0.00 0.00 0.00 0.00 0.00 0.00 0.00 0.00 0.00 0.00 0.00 0.00 0.00 0.00 0.00 0.00 0.00 0.00 0.00 0.00 0.00
0.02 0.00 0.00 0.00 0.00 0.01 0.14 0.17 0.02 0.00 0.00 0.00 0.00 0.01 0.07 0.11 0.11 0.07 0.04 0.03 0.00 0.01 0.05 0.00 0.00 0.00 0.00 0.00 0.00 0.00 0.00 0.00 0.00 0.00 0.00 0.00 0.00 0.00 0.00 0.00 0.00 0.00 0.00 0.00 0.00
0.02 0.00 0.00 0.00 0.00 0.02 0.14 0.09 0.00 0.00 0.00 0.00 0.00 0.00 0.00 0.04 0.14 0.12 0.08 0.02 0.01 0.00 0.03 0.03 0.00 0.00 0.00 0.00 0.00 0.00 0.00 0.00 0.00 0.00 0.00 0.00 0.00 0.00 0.00 0.00 0.00 0.00 0.00 0.00 0.00
0.02 0.02 0.00 0.00 0.01 0.09 0.08 0.01 0.00 0.00 0.00 0.00 0.00 0.01 0.01 0.01 0.09 0.11 0.08 0.04 0.02 0.00 0.05 0.11 0.02 0.00 0.00 0.00 0.00 0.00 0.00 0.00 0.00 0.00 0.00 0.00 0.00 0.00 0.00 0.00 0.00 0.00 0.00 0.00 0.00
0.02 0.02 0.00 0.00 0.00 0.02 0.01 0.00 0.00 0.00 0.00 0.00 0.00 0.00 0.00 0.00 0.04 0.20 0.21 0.15 0.05 0.02 0.03 0.09 0.07 0.01 0.00 0.00 0.00 0.00 0.00 0.00 0.00 0.00 0.00 0.00 0.00 0.00 0.00 0.00 0.00 0.00 0.00 0.00 0.00
0.08 0.03 0.00 0.00 0.01 0.00 0.00 0.00 0.00 0.00 0.00 0.00 0.00 0.01 0.01 0.03 0.09 0.08 0.19 0.20 0.07 0.12 0.16 0.05 0.20 0.06 0.01 0.01 0.00 0.00 0.00 0.00 0.00 0.00 0.00 0.00 0.00 0.00 0.00 0.00 0.00 0.00 0.00 0.00 0.00
0.12 0.08 0.05 0.13 0.04 0.00 0.00 0.00 0.00 0.00 0.00 0.00 0.00 0.00 0.02 0.04 0.06 0.10 0.08 0.14 0.10 0.09 0.11 0.12 0.07 0.10 0.01 0.00 0.00 0.00 0.00 0.00 0.00 0.00 0.00 0.00 0.00 0.00 0.00 0.00 0.00 0.00 0.00 0.00 0.00
0.11 0.04 0.02 0.03 0.01 0.00 0.01 0.01 0.00 0.00 0.00 0.01 0.02 0.06 0.14 0.13 0.05 0.05 0.07 0.13 0.11 0.08 0.16 0.16 0.16 0.03 0.01 0.00 0.00 0.00 0.00 0.00 0.00 0.00 0.00 0.00 0.00 0.00 0.00 0.00 0.00 0.00 0.00 0.00 0.00
0.08 0.02 0.01 0.00 0.00 0.00 0.01 0.01 0.00 0.00 0.00 0.00 0.01 0.01 0.07 0.14 0.08 0.08 0.04 0.04 0.05 0.04 0.07 0.16 0.15 0.06 0.04 0.01 0.01 0.02 0.00 0.00 0.00 0.00 0.00 0.00 0.00 0.00 0.00 0.00 0.00 0.00 0.00 0.00 0.00
0.03 0.01 0.03 0.03 0.01 0.01 0.00 0.00 0.00 0.00 0.01 0.00 0.00 0.02 0.02 0.01 0.03 0.06 0.01 0.00 0.00 0.00 0.02 0.04 0.08 0.09 0.08 0.05 0.04 0.05 0.01 0.00 0.00 0.00 0.00 0.00 0.00 0.00 0.00 0.00 0.00 0.00 0.00 0.00 0.00
MSLP
1023.57 1023.33 1023.05 1022.94 1022.66 1022.36 1022.18 1021.99 1021.86 1021.58 1021.26 1020.93 1020.50 1020.07 1019.59 1018.98 1018.40 1017.80 1017.42 1015.79 1015.56 1015.24 1015.20 1015.38 1015.28 1015.20 1015.16 1015.19 1015.47 1016.00 1016.72 1016.64 1015.86 1015.46 1013.74 1012.94 1012.82 1012.55 1012.56 1012.74 1012.73 1012.85 1013.18 1013.65 1013.84
1024.09 1023.72 1023.49 1023.29 1023.02 1022.55 1022.14 1021.92 1021.75 1021.53 1021.31 1020.92 1020.53 1020.07 1019.55 1019.04 1018.46 1017.20 1015.70 1015.42 1015.34 1015.23 1015.39 1015.40 1015.43 1015.40 1015.75 1015.40 1015.61 1015.89 1016.41 1015.65 1014.79 1014.43 1013.61 1012.80 1012.71 1012.54 1012.75 1012.72 1012.77 1013.03 1013.49 1013.93 1014.09
1024.50 1024.09 1023.84 1023.58 1023.31 1022.87 1022.38 1021.98 1021.66 1021.40 1021.24 1020.94 1020.61 1020.17 1019.59 1019.07 1018.40 1016.11 1015.42 1015.25 1015.26 1015.26 1015.37 1015.44 1015.42 1015.57 1015.88 1015.66 1015.58 1015.58 1015.39 1014.85 1014.17 1013.85 1013.61 1013.24 1012.77 1012.53 1012.62 1012.76 1012.35 1012.55 1013.21 1014.00 1014.20
1024.61 1024.19 1024.06 1023.71 1023.39 1023.06 1022.65 1022.09 1021.68 1021.40 1021.08 1020.85 1020.47 1020.13 1019.70 1019.31 1018.46 1015.98 1015.52 1015.19 1015.16 1015.37 1015.31 1015.42 1015.58 1015.76 1015.80 1015.70 1015.21 1015.46 1014.62 1014.42 1013.94 1013.62 1013.61 1013.53 1013.02 1012.77 1012.60 1012.06 1011.98 1012.30 1012.73 1013.64 1013.98
1024.64 1024.39 1024.14 1023.74 1023.39 1023.04 1022.78 1022.30 1021.83 1021.31 1021.05 1020.63 1020.39 1020.03 1020.01 1020.12 1017.93 1016.27 1015.95 1015.61 1015.26 1015.40 1015.57 1015.44 1015.79 1015.64 1015.59 1015.42 1015.24 1015.17 1014.48 1014.08 1013.78 1013.76 1013.70 1013.58 1013.38 1013.13 1012.51 1012.06 1012.24 1012.49 1012.87 1013.17 1013.58
1024.87 1024.51 1023.96 1023.64 1023.27 1022.83 1022.72 1022.30 1021.81 1021.24 1020.77 1020.56 1020.08 1019.96 1020.23 1019.60 1017.04 1016.36 1016.23 1016.23 1015.66 1015.55 1015.57 1015.58 1015.18 1015.22 1015.23 1015.10 1015.04 1014.20 1014.23 1013.99 1013.73 1013.74 1013.70 1013.74 1013.45 1013.32 1011.95 1011.82 1012.28 1012.59 1012.74 1013.04 1013.11
1024.80 1024.51 1024.08 1023.74 1023.38 1022.99 1022.56 1022.22 1021.67 1021.17 1020.68 1020.33 1019.97 1019.62 1019.18 1018.01 1016.76 1016.31 1016.42 1016.47 1016.27 1016.20 1015.52 1015.19 1015.01 1015.07 1014.90 1014.91 1014.30 1014.24 1014.40 1014.15 1013.81 1013.66 1013.63 1013.74 1013.36 1012.52 1011.75 1011.91 1012.23 1012.38 1012.37 1012.63 1012.69
1024.56 1024.26 1023.85 1023.47 1023.23 1022.92 1022.41 1022.10 1021.34 1020.84 1020.34 1020.02 1019.68 1019.52 1017.49 1016.56 1016.28 1016.33 1016.30 1016.09 1015.67 1015.66 1015.61 1014.72 1014.72 1014.89 1014.87 1014.67 1014.58 1014.59 1014.64 1014.49 1013.58 1013.63 1013.31 1013.54 1012.25 1011.68 1011.48 1012.02 1011.85 1011.92 1012.07 1012.30 1012.08
1024.19 1023.93 1023.53 1023.23 1023.13 1022.75 1022.07 1021.64 1020.94 1019.92 1019.50 1019.32 1019.56 1019.55 1016.84 1016.35 1016.37 1015.55 1015.79 1015.89 1015.22 1014.98 1014.97 1014.71 1014.61 1014.72 1014.84 1015.08 1015.30 1014.97 1014.71 1014.66 1014.16 1013.42 1013.37 1013.44 1012.46 1011.26 1011.35 1011.91 1011.67 1011.74 1011.67 1011.67 1011.68
1023.82 1023.66 1023.40 1023.09 1022.81 1022.34 1021.76 1021.37 1020.35 1019.03 1018.90 1018.74 1018.96 1019.99 1017.45 1016.36 1015.84 1015.26 1015.11 1015.43 1015.23 1014.82 1015.07 1014.93 1014.85 1014.69 1014.77 1014.84 1014.10 1014.88 1014.97 1014.56 1014.06 1013.37 1013.52 1013.50 1012.42 1011.44 1011.33 1011.71 1011.59 1011.55 1011.15 1011.09 1010.98
1023.87 1023.57 1023.29 1023.00 1022.64 1022.21 1021.92 1021.52 1021.33 1020.56 1020.26 1020.76 1020.07 1018.70 1016.78 1016.35 1015.66 1015.09 1015.11 1015.46 1015.61 1015.02 1014.66 1014.77 1014.85 1013.15 1013.18 1013.35 1013.56 1013.85 1013.98 1013.79 1013.49 1013.01 1013.22 1013.05 1012.43 1011.15 1011.08 1011.21 1011.10 1010.60 1010.50 1010.25 1009.94
1023.71 1023.36 1023.08 1022.75 1022.57 1022.32 1022.56 1023.08 1023.51 1023.93 1020.62 1020.05 1019.10 1018.04 1017.30 1017.49 1015.94 1015.34 1015.36 1015.70 1015.51 1014.68 1014.67 1014.70 1012.25 1013.01 1013.24 1013.44 1013.46 1013.57 1013.62 1013.51 1013.21 1012.92 1013.20 1012.76 1011.88 1010.68 1010.51 1010.05 1009.75 1009.35 1009.05 1008.99 1008.90
1023.51 1023.20 1022.94 1022.59 1022.43 1022.63 1022.90 1023.27 1023.40 1023.10 1022.34 1018.68 1017.64 1015.90 1015.38 1015.53 1014.09 1014.53 1015.46 1014.90 1014.80 1014.52 1013.56 1012.83 1011.56 1012.69 1012.89 1012.91 1013.14 1012.72 1012.62 1013.19 1013.20 1013.05 1013.08 1012.98 1011.64 1010.12 1008.94 1008.67 1008.16 1007.93 1007.53 1007.51 1007.48
1023.19 1022.85 1022.75 1022.52 1022.73 1022.84 1023.00 1023.21 1023.14 1023.13 1022.45 1018.22 1016.52 1014.68 1014.51 1014.79 1013.54 1013.65 1013.79 1014.44 1013.90 1013.10 1013.82 1012.85 1011.90 1011.93 1012.09 1011.73 1011.95 1012.19 1012.28 1012.79 1013.14 1013.39 1013.55 1012.98 1011.39 1009.32 1008.29 1007.77 1007.17 1006.69 1006.48 1006.22 1006.21
1022.88 1022.53 1022.28 1022.19 1022.94 1023.06 1022.94 1022.80 1022.83 1023.29 1022.91 1017.86 1016.17 1015.45 1015.22 1014.58 1013.23 1012.37 1011.58 1012.69 1011.76 1012.34 1012.69 1010.30 1010.82 1011.39 1011.66 1010.33 1011.69 1011.48 1011.84 1012.61 1013.10 1013.48 1013.68 1013.09 1012.64 1008.04 1007.62 1006.88 1005.79 1005.17 1004.98 1004.63 1004.85
1022.56 1022.23 1022.08 1022.20 1022.67 1022.42 1022.39 1022.51 1023.25 1024.43 1022.61 1018.50 1016.57 1016.56 1017.05 1016.23 1015.13 1012.81 1012.28 1012.01 1011.48 1011.98 1011.25 1010.83 1010.61 1010.27 1009.45 1010.55 1011.06 1011.44 1012.44 1013.29 1013.77 1014.25 1014.07 1011.84 1011.76 1006.92 1006.23 1005.16 1004.51 1003.91 1003.73 1003.84 1004.10
1022.08 1021.84 1021.88 1022.19 1022.36 1022.37 1022.48 1023.14 1024.44 1024.46 1021.89 1019.29 1017.45 1017.02 1016.95 1015.86 1014.54 1013.44 1012.91 1011.98 1010.87 1010.67 1010.15 1010.52 1010.54 1009.91 1009.49 1010.32 1010.96 1010.79 1011.62 1013.48 1014.59 1014.77 1012.41 1011.58 1010.97 1005.98 1004.14 1003.76 1003.41 1003.33 1003.46 1003.45 1003.79
1021.84 1021.53 1021.54 1021.53 1021.65 1021.96 1023.18 1023.74 1024.00 1023.02 1021.43 1019.11 1018.57 1017.97 1017.80 1016.43 1015.69 1014.33 1012.54 1010.97 1010.72 1010.01 1009.44 1009.67 1009.76 1009.05 1008.55 1008.24 1008.91 1009.75 1009.96 1010.67 1012.06 1012.76 1012.48 1011.87 1008.75 1004.98 1003.38 1001.98 1002.33 1002.59 1003.01 1003.33 1003.66
1021.54 1021.69 1021.57 1021.06 1021.25 1021.92 1023.10 1023.38 1023.13 1022.02 1020.76 1020.18 1019.12 1018.37 1016.95 1016.86 1017.29 1015.70 1012.56 1011.32 1009.98 1009.59 1008.98 1008.88 1008.40 1007.82 1007.66 1007.59 1007.81 1009.26 1008.88 1008.70 1010.68 1012.31 1012.05 1010.00 1007.03 1004.93 1003.23 1002.23 1002.05 1002.30 1002.83 1003.05 1003.21
1022.02 1021.86 1021.44 1020.89 1021.08 1021.84 1022.72 1022.63 1022.51 1021.23 1020.58 1020.28 1019.91 1019.04 1017.27 1016.66 1016.74 1015.88 1014.64 1010.66 1010.03 1009.03 1008.84 1008.44 1008.02 1007.57 1007.82 1007.59 1007.35 1006.73 1006.91 1008.65 1009.69 1010.70 1011.13 1008.78 1007.27 1004.73 1003.19 1002.32 1002.22 1002.14 1002.28 1002.51 1003.00
1022.03 1022.02 1021.11 1020.81 1021.16 1022.00 1022.65 1022.65 1021.80 1020.42 1020.30 1020.39 1019.25 1018.77 1018.15 1017.22 1016.94 1016.20 1014.58 1012.14 1010.48 1008.24 1008.27 1008.64 1007.81 1007.96 1007.63 1006.80 1005.35 1006.43 1006.55 1006.75 1007.36 1008.47 1008.49 1008.18 1005.31 1003.49 1002.59 1002.54 1002.33 1001.92 1001.81 1002.48 1003.23
1022.22 1022.19 1021.34 1021.15 1022.18 1022.72 1022.89 1022.26 1021.27 1020.01 1019.83 1019.67 1018.66 1017.91 1017.97 1017.46 1016.29 1015.35 1013.64 1011.97 1010.54 1009.21 1008.22 1007.57 1007.52 1007.38 1007.23 1006.32 1005.98 1005.66 1005.51 1005.95 1006.57 1007.56 1007.27 1006.88 1004.84 1003.25 1002.97 1002.69 1002.60 1002.49 1002.61 1003.10 1003.76
1021.79 1021.78 1021.39 1021.52 1022.40 1023.33 1023.05 1022.38 1021.45 1020.26 1019.30 1019.10 1018.35 1016.96 1017.11 1016.65 1016.10 1014.18 1012.78 1011.44 1010.35 1009.30 1009.19 1007.85 1007.55 1007.44 1007.69 1007.14 1006.12 1005.44 1004.70 1004.63 1004.91 1005.44 1005.90 1005.74 1004.53 1003.19 1003.35 1003.28 1003.30 1003.45 1003.75 1004.22 1004.70
1021.76 1021.78 1021.88 1021.20 1021.81 1022.40 1022.85 1022.23 1021.18 1019.64 1018.89 1018.51 1017.69 1017.10 1015.91 1015.73 1015.22 1013.78 1012.62 1011.98 1010.70 1009.76 1008.99 1008.59 1007.49 1006.70 1006.14 1005.24 1005.98 1005.82 1005.29 1004.99 1004.93 1005.32 1004.35 1004.21 1004.35 1003.50 1003.51 1003.85 1004.15 1004.36 1004.65 1004.98 1005.42
1021.09 1021.15 1020.99 1021.56 1021.47 1021.74 1021.80 1021.19 1020.10 1019.50 1018.52 1017.87 1017.17 1016.64 1015.87 1014.41 1013.72 1012.63 1012.32 1011.81 1011.22 1010.65 1009.55 1009.77 1009.12 1008.43 1007.73 1006.89 1006.06 1005.79 1005.69 1005.51 1005.44 1004.32 1004.98 1004.06 1004.36 1003.94 1003.70 1004.18 1004.45 1004.70 1005.14 1005.47 1005.87
1020.44 1021.05 1021.29 1020.50 1020.43 1020.62 1020.32 1019.57 1019.43 1017.75 1018.15 1016.89 1016.77 1015.80 1015.40 1014.89 1014.45 1013.24 1012.50 1011.74 1011.50 1011.30 1010.76 1010.37 1010.29 1009.74 1009.44 1008.45 1007.86 1006.85 1006.66 1005.96 1005.32 1004.87 1004.76 1004.70 1004.23 1004.24 1004.20 1004.27 1004.74 1004.82 1005.21 1005.58 1005.80
1019.32 1019.13 1019.35 1018.30 1019.63 1019.52 1018.37 1017.93 1017.36 1017.30 1016.55 1015.80 1015.64 1015.32 1014.62 1014.34 1013.93 1013.22 1012.80 1012.25 1011.67 1011.26 1011.56 1011.21 1010.90 1010.85 1011.00 1010.14 1008.70 1008.19 1007.36 1006.91 1005.79 1005.02 1004.44 1004.80 1004.51 1004.19 1004.45 1004.69 1004.82 1004.84 1005.04 1005.43 1005.60
Thickness
5556 5558 5559 5559 5561 5563 5564 5566 5567 5570 5574 5577 5582 5588 5593 5599 5604 5609 5610 5623 5625 5628 5630 5629 5632 5634 5636 5638 5637 5631 5623 5626 5642 5639 5665 5678 5680 5686 5690 5692 5696 5699 5700 5701 5703
5546 5548 5549 5549 5550 5554 5557 5558 5559 5562 5565 5569 5574 5578 5586 5591 5596 5603 5620 5620 5620 5621 5622 5623 5623 5626 5622 5630 5629 5626 5618 5633 5646 5649 5660 5672 5676 5681 5684 5688 5692 5694 5694 5695 5699
5535 5537 5538 5539 5542 5544 5547 5550 5552 5554 5556 5559 5564 5569 5575 5583 5589 5608 5613 5614 5615 5615 5616 5617 5618 5618 5617 5621 5623 5621 5628 5636 5648 5649 5658 5664 5671 5677 5679 5682 5691 5693 5695 5691 5695
5526 5529 5529 5530 5531 5533 5536 5540 5544 5545 5547 5550 5554 5559 5565 5570 5580 5603 5605 5607 5608 5608 5609 5609 5610 5608 5608 5612 5620 5623 5630 5635 5647 5651 5653 5656 5666 5672 5673 5688 5694 5694 5695 5691 5693
5516 5517 5518 5520 5523 5525 5525 5529 5532 5537 5539 5542 5544 5549 5552 5548 5571 5588 5594 5597 5600 5600 5599 5600 5599 5600 5602 5606 5612 5616 5628 5629 5637 5641 5647 5650 5656 5664 5672 5682 5686 5688 5689 5690 5692
5505 5506 5509 5510 5512 5515 5514 5517 5521 5526 5530 5532 5536 5539 5539 5540 5569 5576 5580 5583 5589 5591 5591 5591 5596 5596 5598 5602 5606 5619 5620 5628 5633 5637 5640 5646 5651 5655 5677 5680 5681 5682 5686 5687 5690
5492 5493 5495 5496 5498 5500 5503 5504 5510 5514 5517 5521 5525 5530 5536 5547 5559 5565 5566 5570 5573 5576 5583 5585 5589 5589 5594 5598 5604 5613 5613 5617 5623 5629 5634 5635 5642 5657 5672 5673 5678 5680 5684 5686 5689
5484 5484 5485 5487 5486 5486 5490 5490 5495 5500 5506 5509 5512 5517 5536 5551 5553 5553 5553 5559 5565 5567 5570 5580 5581 5581 5585 5591 5595 5600 5603 5602 5621 5619 5631 5634 5655 5666 5664 5662 5676 5678 5680 5681 5688
5475 5474 5475 5476 5473 5474 5478 5480 5485 5494 5496 5498 5499 5500 5532 5535 5539 5547 5544 5549 5554 5560 5564 5569 5572 5572 5575 5571 5574 5580 5588 5588 5606 5610 5618 5621 5640 5659 5658 5655 5667 5670 5673 5681 5686
5465 5462 5461 5459 5458 5459 5461 5464 5472 5483 5486 5486 5488 5480 5509 5516 5522 5536 5536 5534 5541 5546 5549 5553 5550 5552 5550 5559 5578 5573 5579 5586 5595 5612 5606 5610 5625 5646 5647 5654 5658 5663 5672 5676 5684
5448 5447 5445 5443 5442 5441 5443 5444 5442 5450 5457 5449 5455 5474 5494 5494 5505 5515 5521 5517 5519 5528 5529 5535 5532 5555 5570 5577 5580 5578 5577 5585 5590 5600 5600 5598 5616 5643 5642 5644 5655 5666 5673 5679 5686
5435 5433 5431 5427 5422 5418 5412 5402 5396 5391 5426 5444 5449 5456 5462 5464 5476 5492 5495 5496 5498 5513 5521 5518 5540 5558 5558 5557 5565 5566 5570 5576 5584 5590 5588 5597 5610 5633 5633 5646 5657 5671 5680 5683 5689
5422 5418 5414 5410 5405 5398 5389 5381 5373 5368 5375 5424 5429 5447 5448 5447 5468 5474 5467 5482 5487 5493 5516 5528 5546 5545 5550 5548 5558 5568 5575 5567 5579 5580 5579 5581 5596 5625 5644 5646 5659 5670 5682 5689 5695
5408 5403 5397 5392 5386 5376 5367 5358 5349 5333 5306 5403 5390 5411 5423 5416 5435 5454 5458 5457 5470 5486 5492 5505 5533 5531 5538 5553 5560 5557 5562 5564 5566 5569 5565 5574 5582 5615 5636 5643 5656 5669 5677 5689 5698
5395 5390 5383 5373 5364 5356 5350 5339 5326 5302 5228 5371 5375 5371 5371 5390 5415 5428 5446 5439 5465 5473 5476 5512 5510 5513 5516 5554 5547 5557 5556 5555 5553 5551 5552 5560 5559 5623 5630 5639 5665 5678 5684 5692 5696
5383 5377 5369 5359 5346 5338 5329 5317 5294 5239 5216 5329 5347 5340 5332 5335 5354 5392 5407 5424 5447 5452 5467 5486 5493 5515 5541 5533 5541 5532 5531 5529 5525 5532 5508 5575 5568 5617 5643 5654 5666 5675 5680 5686 5690
5372 5364 5352 5339 5328 5316 5301 5284 5243 5212 5283 5301 5327 5331 5332 5348 5354 5366 5381 5397 5419 5428 5452 5466 5469 5490 5510 5507 5512 5525 5532 5482 5501 5496 5549 5540 5554 5629 5649 5652 5661 5669 5672 5681 5685
5358 5352 5340 5323 5314 5300 5278 5268 5252 5244 5277 5318 5309 5309 5308 5335 5333 5340 5372 5390 5409 5428 5443 5451 5455 5484 5495 5515 5516 5520 5533 5518 5500 5478 5532 5526 5573 5609 5640 5664 5659 5663 5663 5667 5673
5345 5337 5326 5310 5297 5283 5272 5265 5255 5265 5298 5290 5290 5289 5312 5321 5309 5322 5360 5377 5403 5417 5430 5439 5454 5478 5487 5506 5518 5499 5516 5546 5497 5433 5503 5543 5578 5607 5630 5649 5649 5652 5648 5657 5666
5325 5320 5310 5297 5282 5272 5267 5277 5245 5280 5284 5283 5270 5276 5294 5308 5308 5315 5311 5381 5392 5415 5425 5429 5434 5459 5473 5487 5497 5520 5541 5520 5500 5495 5504 5544 5556 5604 5624 5634 5640 5646 5652 5651 5654
5306 5298 5296 5283 5272 5266 5264 5233 5258 5285 5281 5262 5266 5277 5285 5293 5297 5299 5325 5348 5370 5409 5421 5412 5427 5435 5447 5460 5508 5493 5504 5515 5530 5526 5549 5517 5579 5592 5621 5626 5635 5644 5650 5650 5643
5285 5263 5276 5268 5247 5209 5218 5237 5276 5285 5280 5270 5270 5277 5277 5281 5290 5303 5326 5352 5362 5379 5408 5426 5425 5409 5440 5466 5480 5494 5512 5523 5531 5510 5494 5517 5566 5590 5599 5605 5617 5630 5633 5629 5628
5275 5256 5258 5254 5237 5210 5217 5232 5251 5267 5281 5267 5264 5278 5278 5286 5290 5316 5338 5343 5361 5377 5382 5415 5420 5426 5400 5439 5461 5482 5501 5529 5528 5532 5509 5542 5574 5591 5586 5588 5593 5607 5607 5607 5607
5259 5247 5244 5251 5238 5235 5208 5237 5229 5259 5266 5271 5275 5276 5279 5282 5297 5311 5331 5331 5352 5364 5377 5384 5415 5432 5448 5470 5459 5450 5486 5506 5519 5504 5547 5557 5561 5584 5580 5576 5579 5582 5587 5591 5593
5251 5241 5242 5243 5230 5233 5243 5231 5245 5247 5260 5260 5262 5277 5278 5289 5301 5319 5325 5328 5337 5347 5363 5367 5371 5364 5404 5428 5456 5460 5463 5471 5494 5530 5512 5553 5519 5562 5574 5573 5579 5577 5576 5578 5576
5248 5230 5228 5219 5235 5237 5250 5253 5249 5264 5254 5258 5264 5279 5280 5283 5292 5309 5310 5325 5329 5332 5344 5354 5357 5366 5375 5391 5404 5431 5429 5452 5468 5508 5515 5501 5523 5538 5549 5557 5560 5565 5569 5574 5579
5239 5244 5243 5263 5215 5237 5247 5256 5262 5263 5269 5275 5271 5273 5277 5284 5289 5294 5301 5312 5326 5334 5330 5342 5345 5351 5353 5362 5387 5403 5418 5431 5464 5491 5512 5489 5526 5531 5541 5544 5551 5556 5561 5568 5574